W0WC Weather Reports


time (UTC)temp
C
wind
direction
speed
KPH
gust
KPH
rain 1hr
cm
rain 24hr
cm
rain mn
cm
humidity
%
barometer
mb
20260901160758 33 221 4.8 4.8 0.00 0.00 0.00 47 1019.1
20260901160254 33 248 12.9 16.1 0.00 0.00 0.00 46 1019.1
20260901155753 33 330 3.2 3.2 0.00 0.00 0.00 46 1019.3
20260901155248 33 91 6.4 6.4 0.00 0.00 0.00 46 1019.2
20260901154743 33 213 9.7 12.9 0.00 0.00 0.00 47 1019.3
20260901154238 33 197 11.3 16.1 0.00 0.00 0.00 47 1019.2
20260901153733 33 161 8.0 11.3 0.00 0.00 0.00 47 1019.1
20260901153232 33 63 1.6 3.2 0.00 0.00 0.00 47 1019.0
20260901152732 32 130 6.4 11.3 0.00 0.00 0.00 47 1019.2
20260901152231 32 209 8.0 12.9 0.00 0.00 0.00 49 1019.2
20260901151727 32 217 1.6 1.6 0.00 0.00 0.00 50 1019.3
20260901151227 31 127 9.7 16.1 0.00 0.00 0.00 50 1019.3
20260901150726 32 198 4.8 6.4 0.00 0.00 0.00 49 1019.3
20260901150224 32 6 4.8 4.8 0.00 0.00 0.00 50 1019.3
20260901145722 32 145 14.5 20.9 0.00 0.00 0.00 49 1019.1
20260901145216 32 227 14.5 17.7 0.00 0.00 0.00 49 1019.4
20260901144712 31 254 4.8 6.4 0.00 0.00 0.00 50 1019.3
20260901144207 32 206 12.9 17.7 0.00 0.00 0.00 49 1019.2
20260901143702 31 201 3.2 4.8 0.00 0.00 0.00 50 1019.2
20260901143159 31 17 4.8 6.4 0.00 0.00 0.00 51 1019.3
20260901142655 30 182 14.5 17.7 0.00 0.00 0.00 51 1019.2
20260901142154 30 198 4.8 11.3 0.00 0.00 0.00 52 1019.2
20260901141649 30 210 12.9 16.1 0.00 0.00 0.00 52 1019.2
20260901141148 30 197 6.4 9.7 0.00 0.00 0.00 53 1019.2
20260901140647 30 331 1.6 1.6 0.00 0.00 0.00 54 1019.2
20260901140146 29 276 4.8 9.7 0.00 0.00 0.00 54 1019.4
20260901135641 29 183 6.4 6.4 0.00 0.00 0.00 55 1019.3
20260901135136 29 216 8.0 11.3 0.00 0.00 0.00 55 1019.4
20260901134632 29 19 1.6 3.2 0.00 0.00 0.00 55 1019.3
20260901134127 28 216 3.2 4.8 0.00 0.00 0.00 55 1019.2
20260901133626 28 128 11.3 12.9 0.00 0.00 0.00 55 1019.5
20260901133125 28 116 8.0 9.7 0.00 0.00 0.00 55 1019.4
20260901132620 28 85 4.8 4.8 0.00 0.00 0.00 55 1019.3
20260901132119 28 212 3.2 4.8 0.00 0.00 0.00 55 1019.2
20260901131619 28 219 3.2 6.4 0.00 0.00 0.00 56 1019.2
20260901131114 28 176 4.8 4.8 0.00 0.00 0.00 56 1019.0
20260901130609 27 349 3.2 4.8 0.00 0.00 0.00 56 1019.1
20260901130107 27 339 3.2 3.2 0.00 0.00 0.00 56 1019.0
20260901125607 27 195 4.8 4.8 0.00 0.00 0.00 56 1018.9
20260901125102 27 216 3.2 3.2 0.00 0.00 0.00 56 1019.0
20260901124601 27 187 4.8 6.4 0.00 0.00 0.00 56 1019.1
20260901124056 27 80 3.2 4.8 0.00 0.00 0.00 56 1018.9
20260901123551 27 204 6.4 9.7 0.00 0.00 0.00 56 1018.9
20260901123051 27 182 4.8 6.4 0.00 0.00 0.00 56 1018.8
20260901122549 27 180 3.2 4.8 0.00 0.00 0.00 56 1018.7
20260901122049 27 43 6.4 11.3 0.00 0.00 0.00 56 1018.6
20260901121549 27 303 6.4 9.7 0.00 0.00 0.00 55 1018.6
20260901121045 27 156 4.8 4.8 0.00 0.00 0.00 55 1018.7
20260901120544 27 335 4.8 6.4 0.00 0.00 0.00 55 1018.4
20260901120040 27 30 1.6 1.6 0.00 0.00 0.00 55 1018.5
20260901115535 27 48 1.6 1.6 0.00 0.00 0.00 55 1018.6
20260901115032 27 271 4.8 6.4 0.00 0.00 0.00 55 1018.4
20260901114528 27 192 4.8 4.8 0.00 0.00 0.00 55 1018.4
20260901114026 27 100 3.2 3.2 0.00 0.00 0.00 55 1018.4
20260901113525 27 200 4.8 4.8 0.00 0.00 0.00 55 1018.2
20260901113021 27 118 8.0 9.7 0.00 0.00 0.00 55 1018.2
20260901112516 27 183 4.8 6.4 0.00 0.00 0.00 54 1018.1
20260901112011 27 43 3.2 3.2 0.00 0.00 0.00 54 1018.1
20260901111509 27 135 3.2 3.2 0.00 0.00 0.00 54 1018.0
20260901111008 27 196 3.2 4.8 0.00 0.00 0.00 54 1017.8
20260901110504 27 48 1.6 3.2 0.00 0.00 0.00 54 1017.9
20260901105959 27 92 3.2 3.2 0.00 0.00 0.00 54 1017.8
20260901105455 27 224 3.2 4.8 0.00 0.00 0.00 54 1017.8
20260901104955 27 152 4.8 6.4 0.00 0.00 0.00 54 1017.9
20260901104451 27 86 4.8 6.4 0.00 0.00 0.00 54 1017.8
20260901103951 27 193 3.2 3.2 0.00 0.00 0.00 54 1017.6
20260901103446 27 177 4.8 4.8 0.00 0.00 0.00 55 1017.9
20260901102941 27 204 8.0 11.3 0.00 0.00 0.00 54 1017.6
20260901102436 27 121 6.4 6.4 0.00 0.00 0.00 55 1017.8
20260901101931 27 279 1.6 3.2 0.00 0.00 0.00 55 1017.6
20260901101426 27 105 6.4 11.3 0.00 0.00 0.00 55 1017.6
20260901100926 27 199 3.2 4.8 0.00 0.00 0.00 55 1017.6
20260901100420 27 86 3.2 3.2 0.00 0.00 0.00 55 1017.8
20260901095914 27 69 1.6 3.2 0.00 0.00 0.00 54 1017.6
20260901095413 27 265 3.2 3.2 0.00 0.00 0.00 54 1017.4
20260901094911 27 13 6.4 9.7 0.00 0.00 0.00 54 1017.4
20260901094406 27 136 8.0 14.5 0.00 0.00 0.00 54 1017.5
20260901093901 27 329 6.4 9.7 0.00 0.00 0.00 54 1017.5
20260901093400 27 8 1.6 3.2 0.00 0.00 0.00 55 1017.4
20260901092856 27 180 9.7 12.9 0.00 0.00 0.00 55 1017.3
20260901092356 27 115 6.4 6.4 0.00 0.00 0.00 55 1017.5
20260901091853 27 178 3.2 3.2 0.00 0.00 0.00 55 1017.2
20260901091352 27 161 8.0 9.7 0.00 0.00 0.00 55 1017.4
20260901090847 27 168 3.2 4.8 0.00 0.00 0.00 55 1017.2
20260901090342 27 40 3.2 3.2 0.00 0.00 0.00 55 1017.0
20260901085838 27 106 3.2 4.8 0.00 0.00 0.00 56 1017.1
20260901085333 27 216 4.8 6.4 0.00 0.00 0.00 56 1017.3
20260901084829 27 84 1.6 3.2 0.00 0.00 0.00 56 1017.3
20260901084325 27 37 1.6 3.2 0.00 0.00 0.00 56 1017.2
20260901083821 27 145 4.8 4.8 0.00 0.00 0.00 55 1017.1
20260901083320 27 49 0.0 1.6 0.00 0.00 0.00 55 1017.1
20260901082819 27 56 1.6 3.2 0.00 0.00 0.00 55 1017.1
20260901082314 27 38 3.2 3.2 0.00 0.00 0.00 55 1016.9
20260901081810 27 164 4.8 6.4 0.00 0.00 0.00 54 1017.1
20260901081309 27 72 6.4 9.7 0.00 0.00 0.00 54 1016.9
20260901080804 27 71 3.2 4.8 0.00 0.00 0.00 54 1017.0
20260901080305 27 196 8.0 9.7 0.00 0.00 0.00 54 1017.1
20260901075758 27 122 8.0 11.3 0.00 0.00 0.00 54 1016.9
20260901075254 27 138 4.8 6.4 0.00 0.00 0.00 54 1017.0
20260901074753 27 88 4.8 4.8 0.00 0.00 0.00 54 1016.8
20260901074248 27 39 3.2 4.8 0.00 0.00 0.00 53 1016.9
20260901073745 27 41 3.2 4.8 0.00 0.00 0.00 53 1017.0
20260901073240 27 41 3.2 4.8 0.00 0.00 0.00 53 1017.1
20260901072735 27 123 3.2 4.8 0.00 0.00 0.00 53 1017.0
20260901072230 27 84 6.4 9.7 0.00 0.00 0.00 52 1016.9
20260901071730 27 94 4.8 4.8 0.00 0.00 0.00 52 1016.9
20260901071230 27 73 1.6 1.6 0.00 0.00 0.00 52 1017.1
20260901070729 27 76 3.2 4.8 0.00 0.00 0.00 52 1017.2
20260901070225 27 58 3.2 3.2 0.00 0.00 0.00 52 1017.1
20260901065724 27 151 3.2 3.2 0.00 0.00 0.00 51 1017.1
20260901065219 27 221 4.8 4.8 0.00 0.00 0.00 51 1017.0
20260901064715 28 77 1.6 3.2 0.00 0.00 0.00 50 1016.9
20260901064212 28 187 6.4 6.4 0.00 0.00 0.00 50 1017.1
20260901063708 28 81 3.2 3.2 0.00 0.00 0.00 50 1017.0
20260901063205 28 150 4.8 6.4 0.00 0.00 0.00 50 1017.1
20260901062700 28 78 3.2 4.8 0.00 0.00 0.00 49 1017.3
20260901062155 28 127 6.4 6.4 0.00 0.00 0.00 48 1017.3
20260901061652 28 53 3.2 3.2 0.00 0.00 0.00 48 1017.2
20260901061151 28 174 3.2 4.8 0.00 0.00 0.00 48 1017.3
20260901060646 29 78 3.2 4.8 0.00 0.00 0.00 47 1017.2
20260901060142 29 234 4.8 4.8 0.00 0.00 0.00 47 1017.1
20260901055637 29 113 3.2 6.4 0.00 0.00 0.00 47 1017.1
20260901055134 29 53 3.2 3.2 0.00 0.00 0.00 47 1017.0
20260901054630 29 176 3.2 4.8 0.00 0.00 0.00 47 1017.2
20260901054126 29 83 3.2 4.8 0.00 0.00 0.00 46 1017.1
20260901053622 29 102 6.4 6.4 0.00 0.00 0.00 46 1017.0
20260901053118 29 146 3.2 4.8 0.00 0.00 0.00 46 1017.1
20260901052618 29 54 1.6 1.6 0.00 0.00 0.00 46 1016.9
20260901052114 29 141 1.6 3.2 0.00 0.00 0.00 46 1017.0
20260901051613 29 68 1.6 1.6 0.00 0.00 0.00 45 1017.1
20260901051112 30 25 0.0 1.6 0.00 0.00 0.00 45 1016.9
20260901050607 30 112 4.8 6.4 0.00 0.00 0.00 45 1017.0
20260901045558 30 90 3.2 4.8 0.00 0.00 0.00 44 1016.9
20260901045057 30 155 3.2 4.8 0.00 0.00 0.00 45 1017.0
20260901044554 30 163 6.4 6.4 0.00 0.00 0.00 45 1016.9
20260901044049 30 63 4.8 4.8 0.00 0.00 0.00 45 1017.0
20260901043545 30 106 3.2 3.2 0.00 0.00 0.00 45 1016.8
20260901043040 30 75 3.2 3.2 0.00 0.00 0.00 45 1016.9
20260901042539 30 216 6.4 6.4 0.00 0.00 0.00 44 1016.8
20260901042035 30 160 4.8 6.4 0.00 0.00 0.00 44 1016.7
20260901041530 30 71 4.8 6.4 0.00 0.00 0.00 44 1016.7
20260901041025 30 83 6.4 9.7 0.00 0.00 0.00 44 1016.9
20260901040519 30 90 4.8 4.8 0.00 0.00 0.00 44 1016.8
20260901040019 30 168 4.8 4.8 0.00 0.00 0.00 45 1016.9
20260901035517 29 170 3.2 3.2 0.00 0.00 0.00 46 1016.8
20260901035016 29 47 3.2 3.2 0.00 0.00 0.00 47 1016.8
20260901034516 29 28 1.6 3.2 0.00 0.00 0.00 47 1016.5
20260901034010 28 76 3.2 3.2 0.00 0.00 0.00 48 1016.6
20260901033509 28 32 0.0 1.6 0.00 0.00 0.00 51 1016.7
20260901033010 28 30 0.0 1.6 0.00 0.00 0.00 51 1016.7
20260901032503 28 25 0.0 0.0 0.00 0.00 0.00 51 1016.5
20260901031958 28 21 0.0 0.0 0.00 0.00 0.00 51 1016.4
20260901031454 28 13 0.0 0.0 0.00 0.00 0.00 51 1016.4
20260901030954 28 14 0.0 0.0 0.00 0.00 0.00 50 1016.3
20260901030449 28 13 0.0 0.0 0.00 0.00 0.00 49 1016.3
20260901025948 28 15 0.0 0.0 0.00 0.00 0.00 49 1016.6
20260901025443 28 15 0.0 0.0 0.00 0.00 0.00 48 1016.2
20260901024942 28 14 0.0 0.0 0.00 0.00 0.00 48 1016.2
20260901024437 29 14 0.0 0.0 0.00 0.00 0.00 48 1016.5
20260901023936 29 15 0.0 0.0 0.00 0.00 0.00 48 1016.3
20260901023431 30 13 0.0 0.0 0.00 0.00 0.00 46 1016.1
20260901022926 30 3 0.0 0.0 0.00 0.00 0.00 46 1016.3
20260901022422 30 8 0.0 0.0 0.00 0.00 0.00 45 1016.2
20260901021916 30 12 0.0 0.0 0.00 0.00 0.00 44 1016.0
20260901021412 30 16 0.0 0.0 0.00 0.00 0.00 44 1016.0
20260901020907 30 14 0.0 0.0 0.00 0.00 0.00 44 1015.8
20260901020403 30 10 0.0 0.0 0.00 0.00 0.00 43 1015.8
20260901015901 30 10 0.0 0.0 0.00 0.00 0.00 43 1015.9
20260901015358 31 8 0.0 0.0 0.00 0.00 0.00 43 1015.8
20260901014857 31 12 0.0 0.0 0.00 0.00 0.00 42 1015.7
20260901014354 31 12 0.0 0.0 0.00 0.00 0.00 42 1015.6
20260901013849 31 11 0.0 0.0 0.00 0.00 0.00 42 1015.6
20260901013344 31 12 0.0 0.0 0.00 0.00 0.00 41 1015.5
20260901012840 31 11 0.0 0.0 0.00 0.00 0.00 40 1015.4
20260901012335 32 13 0.0 0.0 0.00 0.00 0.00 40 1015.4
20260901011831 32 14 0.0 0.0 0.00 0.00 0.00 39 1015.4
20260901011327 32 13 0.0 0.0 0.00 0.00 0.00 38 1015.2
20260901010825 33 13 0.0 0.0 0.00 0.00 0.00 38 1015.5
20260901010320 33 14 0.0 0.0 0.00 0.00 0.00 37 1015.2
20260901005818 33 10 0.0 0.0 0.00 0.00 0.00 36 1015.3
20260901005314 33 6 0.0 0.0 0.00 0.00 0.00 36 1015.1
20260901004814 34 10 0.0 0.0 0.00 0.00 0.00 35 1015.2
20260901004308 35 9 0.0 0.0 0.00 0.00 0.00 34 1015.0
20260901003803 35 7 0.0 0.0 0.00 0.00 0.00 33 1015.1
20260901003258 35 179 3.2 4.8 0.00 0.00 0.00 32 1015.3
20260901002756 35 10 0.0 0.0 0.00 0.00 0.00 32 1015.0
20260901002252 36 4 1.6 1.6 0.00 0.00 0.00 32 1015.2
20260901001747 36 7 3.2 3.2 0.00 0.00 0.00 31 1015.2
20260901001242 36 26 1.6 3.2 0.00 0.00 0.00 31 1015.0
20260901000737 36 210 4.8 6.4 0.00 0.00 0.00 31 1015.1
20260901000233 36 295 3.2 4.8 0.00 0.00 0.00 30 1015.0
20260831235731 36 27 1.6 1.6 0.00 0.00 0.00 30 1015.0
20260831235227 37 214 3.2 9.7 0.00 0.00 0.00 30 1015.1
20260831234728 37 225 4.8 4.8 0.00 0.00 0.00 30 1014.9
20260831234227 37 227 6.4 9.7 0.00 0.00 0.00 29 1015.1
20260831233722 37 200 9.7 11.3 0.00 0.00 0.00 29 1015.1
20260831233218 37 222 11.3 14.5 0.00 0.00 0.00 29 1015.0
20260831232718 37 241 4.8 4.8 0.00 0.00 0.00 29 1015.0
20260831232214 38 95 1.6 3.2 0.00 0.00 0.00 28 1015.0
20260831231705 38 22 3.2 3.2 0.00 0.00 0.00 28 1015.0
20260831231201 38 312 3.2 4.8 0.00 0.00 0.00 28 1015.0
20260831230700 38 349 3.2 4.8 0.00 0.00 0.00 28 1015.0
20260831230156 38 270 3.2 3.2 0.00 0.00 0.00 28 1015.0
20260831225655 38 340 3.2 4.8 0.00 0.00 0.00 28 1015.0
20260831225150 38 216 14.5 16.1 0.00 0.00 0.00 28 1015.0
20260831224645 38 268 1.6 3.2 0.00 0.00 0.00 28 1015.3
20260831224146 37 251 3.2 3.2 0.00 0.00 0.00 29 1015.1
20260831223641 38 0 3.2 4.8 0.00 0.00 0.00 28 1015.0
20260831223138 38 176 11.3 14.5 0.00 0.00 0.00 28 1015.1
20260831222633 38 197 6.4 6.4 0.00 0.00 0.00 28 1015.2
20260831222128 38 107 3.2 3.2 0.00 0.00 0.00 28 1015.1
20260831221624 38 17 3.2 4.8 0.00 0.00 0.00 29 1015.2
20260831221119 38 235 11.3 16.1 0.00 0.00 0.00 29 1015.4
20260831220614 38 193 4.8 6.4 0.00 0.00 0.00 28 1015.1
20260831220109 38 356 1.6 1.6 0.00 0.00 0.00 28 1015.2
20260831215605 38 95 4.8 6.4 0.00 0.00 0.00 28 1015.2
20260831215055 38 230 6.4 9.7 0.00 0.00 0.00 29 1015.3
20260831214552 38 188 4.8 4.8 0.00 0.00 0.00 29 1015.5
20260831214048 38 82 8.0 9.7 0.00 0.00 0.00 29 1015.6
20260831213544 38 327 4.8 9.7 0.00 0.00 0.00 28 1015.6
20260831213039 38 12 3.2 4.8 0.00 0.00 0.00 29 1015.6
20260831212535 37 49 1.6 3.2 0.00 0.00 0.00 30 1015.4
20260831212031 38 152 6.4 6.4 0.00 0.00 0.00 29 1015.6
20260831211525 38 210 4.8 4.8 0.00 0.00 0.00 29 1015.6
20260831211024 38 281 14.5 16.1 0.00 0.00 0.00 28 1015.8
20260831210520 38 314 3.2 4.8 0.00 0.00 0.00 29 1015.7
20260831210016 38 39 4.8 11.3 0.00 0.00 0.00 29 1015.7
20260831205511 39 27 3.2 3.2 0.00 0.00 0.00 29 1015.7
20260831205007 37 344 1.6 3.2 0.00 0.00 0.00 30 1015.8
20260831204507 38 53 6.4 9.7 0.00 0.00 0.00 30 1015.7
20260831204005 37 352 3.2 4.8 0.00 0.00 0.00 30 1015.9
20260831203505 37 265 6.4 9.7 0.00 0.00 0.00 30 1016.0
20260831203003 38 200 12.9 16.1 0.00 0.00 0.00 29 1016.1
20260831202458 37 55 3.2 3.2 0.00 0.00 0.00 30 1016.1
20260831201957 38 215 6.4 6.4 0.00 0.00 0.00 29 1016.3
20260831201456 38 65 6.4 6.4 0.00 0.00 0.00 29 1016.2
20260831200953 38 228 12.9 16.1 0.00 0.00 0.00 28 1016.4
20260831200448 37 332 4.8 4.8 0.00 0.00 0.00 29 1016.4
20260831195948 37 172 16.1 24.1 0.00 0.00 0.00 28 1016.5
20260831195443 38 109 4.8 4.8 0.00 0.00 0.00 28 1016.7
20260831194938 38 181 14.5 17.7 0.00 0.00 0.00 27 1016.6
20260831194434 38 51 1.6 1.6 0.00 0.00 0.00 27 1016.6
20260831193933 37 177 9.7 12.9 0.00 0.00 0.00 28 1016.6
20260831193428 37 282 6.4 9.7 0.00 0.00 0.00 29 1016.6
20260831192923 37 258 11.3 16.1 0.00 0.00 0.00 28 1016.7
20260831192419 37 218 9.7 12.9 0.00 0.00 0.00 29 1016.6
20260831191914 37 220 8.0 14.5 0.00 0.00 0.00 29 1016.9
20260831191410 37 180 9.7 16.1 0.00 0.00 0.00 29 1017.1
20260831190906 37 143 9.7 14.5 0.00 0.00 0.00 30 1016.8
20260831190406 37 140 8.0 9.7 0.00 0.00 0.00 30 1016.8
20260831185905 37 217 8.0 12.9 0.00 0.00 0.00 30 1017.2
20260831185401 38 198 4.8 11.3 0.00 0.00 0.00 29 1017.1
20260831184900 37 56 1.6 3.2 0.00 0.00 0.00 29 1017.0
20260831184355 38 230 6.4 9.7 0.00 0.00 0.00 29 1017.0
20260831183851 37 228 8.0 9.7 0.00 0.00 0.00 30 1017.2
20260831183350 37 213 8.0 14.5 0.00 0.00 0.00 30 1017.3
20260831182849 37 126 8.0 11.3 0.00 0.00 0.00 30 1017.2
20260831182344 37 140 12.9 14.5 0.00 0.00 0.00 29 1017.4
20260831181840 37 55 3.2 6.4 0.00 0.00 0.00 31 1017.4
20260831181335 37 26 1.6 1.6 0.00 0.00 0.00 32 1017.6
20260831180830 37 156 6.4 9.7 0.00 0.00 0.00 31 1017.5
20260831180325 37 129 11.3 14.5 0.00 0.00 0.00 30 1017.6
20260831175823 37 253 3.2 4.8 0.00 0.00 0.00 32 1017.8
20260831175320 37 325 1.6 1.6 0.00 0.00 0.00 33 1017.8
20260831174816 37 261 3.2 4.8 0.00 0.00 0.00 32 1017.6
20260831174312 37 172 6.4 9.7 0.00 0.00 0.00 32 1017.8
20260831173811 36 332 3.2 4.8 0.00 0.00 0.00 33 1017.9
20260831173304 36 262 14.5 16.1 0.00 0.00 0.00 32 1017.8
20260831172800 36 253 3.2 4.8 0.00 0.00 0.00 35 1017.9
20260831172255 36 190 6.4 9.7 0.00 0.00 0.00 35 1018.0
20260831171755 36 153 8.0 11.3 0.00 0.00 0.00 34 1018.2
20260831171253 36 235 9.7 11.3 0.00 0.00 0.00 35 1018.3
20260831170749 36 254 6.4 9.7 0.00 0.00 0.00 35 1018.5
20260831170245 35 290 6.4 11.3 0.00 0.00 0.00 37 1018.3
20260831165741 35 231 8.0 11.3 0.00 0.00 0.00 37 1018.5
20260831165237 35 307 4.8 11.3 0.00 0.00 0.00 38 1018.3
20260831164733 35 286 6.4 6.4 0.00 0.00 0.00 37 1018.4
20260831164229 35 318 9.7 11.3 0.00 0.00 0.00 37 1018.5
20260831163724 35 209 11.3 17.7 0.00 0.00 0.00 37 1018.5
20260831163220 35 162 9.7 12.9 0.00 0.00 0.00 38 1018.3
20260831162718 35 332 6.4 9.7 0.00 0.00 0.00 38 1018.4
20260831162217 35 304 3.2 3.2 0.00 0.00 0.00 39 1018.5
20260831161712 34 117 4.8 6.4 0.00 0.00 0.00 40 1018.7
20260831161209 34 197 6.4 9.7 0.00 0.00 0.00 40 1018.6